Regional Weather Roundup
Issued by NWS

Home | Current Version | Previous Version | Text Only | Print | Product List | Glossary On
Versions: 1 2 3 4 5 6 7 8 9 10 11 12 13 14 15 16 17 18 19 20 21 22 23 24 25 26 27 28 29 30 31 32 33 34 35 36 37 38 39 40 41 42 43 44 45 46 47 48 49 50
000
ASUS43 KIND 221109
RWRIN

WEATHER ROUNDUP FOR INDIANA
NATIONAL WEATHER SERVICE INDIANAPOLIS IN
600 AM EST WED NOV 22 2017

NOTE: "FAIR" INDICATES FEW OR NO CLOUDS BELOW 12,000 FEET WITH NO
SIGNIFICANT WEATHER AND/OR OBSTRUCTIONS TO VISIBILITY.

* - STATION DOES NOT REPORT WEATHER SUCH AS PRECIPITATION OR FOG.

+ - STATION NOT QUALITY CONTROLLED BY THE NATIONAL WEATHER SERVICE.
    USE DATA WITH CAUTION...ESPECIALLY DEWPOINT AND RELATIVE
    HUMIDITY OBSERVATIONS.

INZ001>003-010>013-019-020-221200-
NORTHWEST INDIANA

CITY           SKY/WX    TMP DP  RH WIND       PRES   REMARKS
GARY /AIRPORT/ PTCLDY    28  16  59 NW12      30.30R WCI  18
KNOX *+        CLOUDY    28  23  80 W9        30.26R WCI  20
LA PORTE +     CLOUDY    32  22  68 N8        30.26R WCI  25
MICHIGAN CITY+ CLOUDY    32  23  69 NW10      30.27R WCI  24
MONTICELLO +   CLEAR     23  17  77 NW9       30.27R WCI  13
RENSSELAER +   CLEAR     23  16  74 W7        30.29R WCI  15
VALPARAISO     CLOUDY    30  21  69 W6        30.27R WCI  24

$$

LMZ046-743>745-221200-
SOUTHERN LAKE MICHIGAN

STATION/POSITION TIME  TEMP    WIND        PRES    WAVE
                       AIR SEA DIR/SP/G            HT
                 (UTC) (F)     (DEG/KT/KT) (MB)    (FT)
BURNS HARBOR     1040   33     340/ 14/ 18 1025.4R
MICHIGAN CITY    1040   32     320/ 19/ 21   N/A

$$

INZ004-005-014>016-021>024-221200-
NORTH CENTRAL INDIANA

CITY           SKY/WX    TMP DP  RH WIND       PRES   REMARKS
GOSHEN         CLOUDY    32  20  61 NW7       30.23R WCI  26
LOGANSPORT +   CLEAR     27  19  74 NW7       30.27R WCI  19
PERU/GRISSOM   MOCLDY    27  21  78 NW10      30.24R WCI  17
ROCHESTER +    CLOUDY    32  27  80 W6        30.25R WCI  26
SOUTH BEND     CLOUDY    31  23  72 NW12      30.25R WCI  22
WARSAW +       CLOUDY    32  23  69 NW9       30.23R WCI  24

$$

INZ006>009-017-018-025>027-221200-
NORTHEAST INDIANA

CITY           SKY/WX    TMP DP  RH WIND       PRES   REMARKS
AUBURN +       CLOUDY    32  23  69 N3        30.22R
FORT WAYNE     CLOUDY    34  26  72 NW7       30.22R WCI  28
HUNTINGTON +   CLOUDY    31  25  76 NW3       30.22R
KENDALLVILLE + CLOUDY    31  25  77 N3        30.22R

$$

INZ028-029-035-036-043>045-051>053-221200-
WEST CENTRAL INDIANA

CITY           SKY/WX    TMP DP  RH WIND       PRES   REMARKS
CRAWFORDSVL +  CLEAR     22  18  83 MISG      30.24R
GREENCASTLE +  PTCLDY    27  18  69 NW3       30.28R
LAFAYETTE      CLEAR     23  17  78 NW8       30.29R WCI  14
TERRE HAUTE    CLEAR     25  18  74 NW3       30.30R

$$

INZ030>032-037>040-046>048-054>057-064-065-221200-
CENTRAL INDIANA

CITY           SKY/WX    TMP DP  RH WIND       PRES   REMARKS
CP ATTERBURY + CLEAR     27  23  86 NW3       30.27R
FISHERS *+     CLEAR     25  23  93 CALM      30.25R
FRANKFORT +    MOCLDY    27  21  77 NW6       30.28R WCI  21
GREENWOOD *+   CLEAR     29  23  81 CALM      30.26R
INDIANAPOLIS   PTCLDY    25  19  78 NW8       30.26R WCI  16
-EAGLE CREEK   PTCLDY    26  19  74 NW9       30.25R WCI  17
KOKOMO +       PTCLDY    27  22  81 NW10      30.25R WCI  17
MARION +       PTCLDY    29  25  84 NW8       30.24R WCI  21
MT COMFORT *+  CLEAR     23  23 100 NW6       30.25R WCI  16
SHELBYVILLE    CLEAR     25  20  81 NW6       30.24R WCI  18
ZIONSVILLE +   MOCLDY    24  20  83 NW8       30.26R WCI  15

$$

INZ033-034-041-042-049-050-058-059-221200-
EAST CENTRAL INDIANA

CITY           SKY/WX    TMP DP  RH WIND       PRES   REMARKS
MUNCIE         PTCLDY    30  24  78 NW9       30.22R WCI  22
RICHMOND +     CLOUDY    28  27  93 W5        30.21R WCI  23

$$

INZ060-061-067>069-081>083-085>088-221200-
SOUTHWEST INDIANA

CITY           SKY/WX    TMP DP  RH WIND       PRES   REMARKS
EVANSVILLE     CLEAR     28  23  81 N8        30.31R WCI  20
HUNTINGBURG +  CLEAR     27  23  85 NW5       30.29R WCI  22
WASHINGTON +   CLEAR     26  22  82 NW5       30.30R WCI  21

$$

INZ062-063-066-070>080-084-089>092-221200-
SOUTH CENTRAL AND SOUTHEAST INDIANA

CITY           SKY/WX    TMP DP  RH WIND       PRES   REMARKS
BEDFORD +      CLEAR     27  23  86 CALM      30.26R
BLOOMINGTON    CLEAR     26  19  74 CALM      30.26R
MADISON *+     CLEAR     28  23  80 NW3       30.26R
NORTH VERNON + CLEAR     25  21  86 NW3       30.25R
SEYMOUR +      CLEAR     27  21  80 CALM      30.26R

$$





USA.gov is the U.S. government's official web portal to all federal, state and local government web resources and services.